BSAT-3B

Last updated on Fri Dec 19 2025 00:02:50 GMT+0000 (Coordinated Universal Time)

1 37207U 10056B 25352.66213954 -.00000325 00000+0 00000+0 0 9993 2 37207 0.0556 235.9820 0004129 21.1567 178.5925 1.00269338 50288
UTC large
Height (km)
Speed (km/s)
/
Latitude / Longitude
Inclination (degrees)
Orbital Period (minutes)
Azimuth
Elevation
Range (km)
Doppler Factor

Next 0 passes for location: London (51.5072 / 0.1276)

Sorry there are no passes over London.